Terug naar catalogus

STARLINK-6134

ActiefCommunicatieVLEO
NORAD 57110·PAYLOAD·🇺🇸 United States

Gelanceerd Jun 23, 2023 vanaf Cape Canaveral Space Force Station

Loading…

Volgende Passages (komende 24 uur)

TLE

VersSource: CelesTrak SupGP

Epoch: Sep 14, 2026, 20:51 UTC

1 57110C 23090K   26257.86923611 -.00016529  00000+0 -59886-3 0  2576
2 57110  43.0005 293.1236 0001400 263.5842 165.6608 15.27576948    16

Volg STARLINK-6134 in realtime met AllMySat

Download on the App Store